Vertical_Velocity
2 -1 -1 -0 1 -1 3 -0 -0 -4 -3 -0 -5 -3 4 8 11 10 5 3 5 7 3 4 7 -4 -2 -4 14 6 2 3 -0 3 3 3 -2 -0 -1 9 -2 -6 3 1 3 -2 -2
-1 -2 -1 1 -1 -1 2 0 -0 2 1 -2 1 3 1 3 -1 4 8 4 4 5 1 5 5 -2 -0 2 -6 3 1 2 -0 3 -2 4 12 2 -3 -1 -14 2 -1 -6 0 5 -0
-1 3 -2 1 -0 -3 0 0 -2 -1 -4 -2 -3 -1 -1 1 1 2 -0 6 5 6 5 7 8 -4 -4 22 -1 3 2 3 1 0 5 2 2 1 7 -0 -0 -3 -1 1 8 12 -0
1 1 -3 -1 -0 -2 0 -1 -1 -1 -4 -5 -3 -0 0 0 1 1 3 2 5 8 5 9 1 -7 3 -14 -0 8 -3 1 3 2 5 -1 -4 2 2 -8 -2 1 0 -5 22 -7 6
-3 -1 -3 2 1 -2 -1 -2 -3 -1 -5 -4 -3 -1 1 1 1 2 1 3 2 4 5 6 2 -10 21 -7 7 11 -2 3 1 1 -2 1 -3 2 -7 -1 -1 -7 0 7 2 -1 -12
-2 1 -3 -2 1 -2 -1 0 1 -5 -4 -6 -1 0 1 -1 0 1 1 -2 2 4 4 6 10 2 -4 6 9 7 -2 0 5 2 3 -1 -3 -1 -3 -9 7 12 3 -12 2 -9 -7
0 -1 -0 2 1 -1 0 -0 0 -5 -2 -2 -2 1 -1 -0 3 6 1 4 6 9 1 3 -2 4 17 7 -5 -2 -2 7 2 3 1 -2 -4 -7 11 8 -6 -6 -4 -5 10 -6 -4
-1 -0 -3 -2 1 -4 -1 -0 1 -4 -2 0 -5 -4 -3 -1 3 2 1 2 -0 4 -0 -2 5 1 -1 5 5 -6 -4 2 1 -0 3 -0 -2 5 26 -6 -6 -3 -0 8 -4 -9 -7
-0 -1 -2 -0 1 -4 -1 2 1 1 3 -1 -4 -8 -3 -2 1 -2 -3 1 1 6 2 3 4 6 3 3 -1 10 -0 6 7 3 3 2 7 -2 -1 -2 -1 0 -2 -0 1 -0 -11
-2 -2 -0 -2 2 -2 -2 2 1 1 -2 5 1 -0 3 1 -5 -1 -3 -0 -2 9 21 0 20 -3 0 5 2 0 2 -2 -4 -0 1 0 2 1 1 -2 2 -4 1 -0 2 -10 -9
-2 2 -0 -0 -2 -0 -4 -1 2 0 3 0 -0 4 1 1 8 -1 -4 7 -5 11 27 27 9 -0 -5 -1 11 -0 -8 -5 2 9 12 9 3 1 -0 -1 -1 3 0 -1 -3 -6 -7
-3 0 -0 1 -5 -1 -5 -1 3 2 4 0 -1 1 -2 -0 1 -2 -2 -2 8 20 16 -4 -6 -5 -5 -1 1 -6 -1 -2 4 -4 -2 0 2 2 1 -2 -1 4 -0 -3 -4 -2 -8
-2 -0 2 3 -3 -4 -5 -2 -0 1 -2 -5 -2 -2 -2 -2 -0 -1 -7 2 6 2 6 24 -13 -0 0 6 -5 1 3 0 -0 -2 -3 3 -0 -1 -4 -3 2 3 -2 -1 -2 -4 1
-3 -1 0 1 -2 -5 -7 -3 -3 1 -4 -4 -4 -8 -1 6 4 3 -4 -4 9 16 5 -4 -4 2 2 -1 0 4 -0 2 0 3 4 2 -4 -1 -4 -1 -2 -0 -2 -3 -3 -1 -1
-2 -0 2 1 -2 -5 -7 -7 -4 -2 -6 -9 -9 -0 -1 -2 2 13 6 0 7 6 4 -5 -6 4 -3 -1 4 -2 3 -1 2 2 -0 -1 3 3 -5 4 0 3 -1 -1 -0 -2 -4
-1 0 3 2 -1 -5 -8 -10 -4 -8 -19 -11 -12 -2 0 0 8 3 -4 1 -7 -4 -1 0 4 -5 4 -1 -2 -1 -2 1 4 -2 -1 2 4 3 0 2 -1 -2 0 1 -1 -6 -6
-1 -1 5 1 -0 2 -9 -9 -8 -5 3 -16 -11 3 -2 6 6 -6 -10 -5 -7 -10 -8 -3 1 6 -3 3 3 5 3 3 -2 -1 1 4 1 -0 -3 -1 -0 -0 0 -0 -3 -4 -7
-2 -1 4 0 -1 5 1 -5 -11 -5 -4 -20 -6 -1 -1 -2 -4 -10 -10 -4 0 -4 -0 0 2 -2 9 3 -0 3 3 3 -3 2 3 3 -1 -2 -5 -1 -1 -1 -1 -1 -4 -1 -1
-3 1 2 2 -4 1 7 -5 -14 0 -1 -6 -3 -7 -16 -1 -14 0 5 2 -2 -4 -2 -2 -2 -3 -2 -2 -3 -3 -1 -2 -0 1 7 1 -0 0 -0 1 0 -1 -1 -3 -2 -1 5
-2 -3 1 6 -2 -1 3 4 -7 -5 -5 -6 -7 -9 0 -11 1 -5 -2 1 3 -1 -1 -0 0 1 1 -1 -0 1 -1 0 0 -2 1 0 -0 0 -1 -0 -1 -1 0 -1 2 -4 6
2 -3 -0 6 -4 -4 0 1 -3 -4 -1 -1 -2 -8 -4 2 -5 -13 -10 -7 -4 1 0 -4 2 -4 -1 2 1 0 0 1 0 1 -0 -2 -3 -1 -0 -1 0 1 -2 2 -1 -3 4
1 2 -3 1 4 -4 -1 -2 2 -2 -0 1 -5 -2 -0 -4 -8 5 -3 -3 -3 -3 -2 -3 -2 -1 0 -0 1 -0 1 -0 2 1 -0 -1 -3 -2 -4 1 2 -0 -0 -2 -1 -4 -2
1 3 1 -0 -1 5 -4 -1 -3 -8 -1 4 -2 0 -3 -2 0 -2 -4 -3 -4 -4 -3 -4 -3 -2 -2 -2 -2 1 -0 -0 -1 -1 -1 -1 -1 -3 -2 0 -0 0 0 -0 1 0 4
5 4 7 -2 -1 2 3 -1 2 -7 -8 -2 2 -3 -1 0 -4 -5 -3 -3 -3 -2 -2 -2 -1 -1 -1 -2 -1 -1 -2 -2 -1 0 1 0 -1 -2 -1 -1 -1 -1 -1 -0 1 1 -1
3 5 4 4 -3 -0 -2 7 -1 -1 -4 -3 1 1 -3 -4 -3 0 -2 -2 -3 -2 -0 -0 -0 0 -0 1 -1 -0 1 -1 -1 -0 -1 -0 -1 -2 -1 0 1 -1 0 1 -1 -1 -2
3 4 6 3 3 -1 0 -3 7 6 -4 -6 -4 2 0 -4 -4 -2 -3 -1 2 -2 1 -2 -0 0 -1 0 1 -4 -1 1 2 0 -1 1 -0 -0 -1 -2 1 0 1 0 -0 -1 -0
3 6 4 4 0 1 4 -2 -2 4 5 1 -1 -2 4 0 -1 -4 -1 -2 1 -1 -1 -3 -2 -1 0 -1 -0 1 0 -1 2 0 -0 1 -1 -3 -0 3 1 -1 0 0 -2 -2 0
-1 7 1 5 2 2 2 3 1 -1 3 4 -1 0 -3 8 -0 -2 1 0 0 -0 -1 -4 -3 -3 -1 -1 0 1 1 1 2 1 -1 0 -1 -1 -0 -0 1 -1 0 -1 -1 3 -2
1 4 4 3 3 2 0 3 2 5 6 3 1 2 3 -1 6 3 -1 1 -1 -2 -1 -3 -2 -0 -1 0 1 0 2 0 2 0 -0 -1 -2 1 2 1 -0 0 0 -1 1 1 -2
Height
5738 5731 5723 5714 5705 5695 5685 5673 5662 5651 5639 5626 5612 5599 5584 5578 5581 5584 5587 5594 5600 5608 5614 5623 5631 5635 5642 5650 5660 5665 5671 5680 5688 5695 5703 5710 5717 5723 5729 5735 5738 5743 5749 5755 5761 5764 5766
5732 5724 5715 5705 5694 5685 5672 5660 5647 5634 5618 5601 5581 5564 5551 5545 5542 5550 5556 5568 5579 5589 5598 5609 5619 5625 5634 5644 5645 5655 5663 5670 5679 5687 5694 5702 5710 5715 5721 5727 5732 5736 5741 5745 5751 5757 5759
5725 5715 5709 5697 5685 5674 5660 5645 5630 5614 5595 5575 5554 5534 5524 5521 5518 5521 5526 5540 5556 5570 5584 5595 5605 5613 5626 5634 5638 5647 5655 5663 5669 5678 5687 5693 5699 5707 5714 5719 5725 5728 5734 5738 5745 5751 5752
5717 5708 5700 5689 5676 5663 5648 5631 5614 5595 5574 5553 5532 5517 5509 5505 5504 5505 5509 5515 5533 5552 5569 5582 5592 5603 5617 5622 5632 5641 5648 5656 5662 5669 5678 5684 5691 5699 5706 5711 5716 5721 5727 5731 5739 5740 5745
5712 5702 5693 5680 5667 5653 5636 5618 5599 5578 5558 5538 5519 5506 5499 5496 5495 5495 5498 5503 5511 5533 5554 5569 5584 5596 5609 5616 5628 5633 5641 5650 5655 5663 5670 5678 5685 5691 5698 5704 5710 5714 5718 5724 5728 5732 5736
5704 5695 5686 5673 5658 5643 5626 5607 5585 5564 5545 5527 5511 5498 5493 5492 5491 5490 5491 5494 5500 5518 5541 5561 5575 5588 5602 5614 5620 5626 5636 5645 5652 5657 5665 5671 5677 5683 5691 5697 5704 5708 5712 5716 5720 5724 5728
5700 5690 5680 5666 5651 5635 5617 5597 5573 5553 5536 5521 5508 5494 5491 5491 5491 5491 5492 5492 5499 5510 5532 5555 5570 5584 5596 5605 5613 5621 5632 5640 5647 5653 5659 5666 5672 5678 5686 5691 5695 5699 5703 5708 5713 5717 5721
5694 5686 5674 5660 5646 5629 5610 5588 5565 5545 5528 5515 5505 5495 5493 5492 5491 5490 5490 5489 5494 5507 5528 5550 5566 5578 5591 5601 5610 5618 5627 5637 5642 5649 5655 5662 5668 5675 5681 5685 5688 5693 5698 5704 5707 5710 5713
5690 5681 5669 5654 5640 5624 5605 5582 5559 5539 5524 5511 5503 5498 5495 5493 5492 5491 5489 5489 5494 5509 5529 5551 5567 5577 5589 5599 5608 5617 5625 5634 5640 5647 5653 5659 5666 5671 5676 5679 5683 5688 5692 5696 5700 5702 5706
5685 5677 5666 5651 5636 5620 5602 5579 5554 5534 5521 5511 5504 5499 5497 5494 5493 5489 5487 5487 5495 5514 5535 5554 5564 5575 5585 5595 5605 5614 5623 5630 5637 5643 5650 5656 5660 5665 5670 5675 5680 5683 5686 5690 5694 5697 5700
5682 5673 5662 5649 5633 5618 5599 5576 5551 5531 5519 5509 5504 5497 5494 5492 5492 5488 5486 5490 5503 5519 5539 5553 5562 5573 5584 5596 5605 5611 5620 5627 5634 5641 5648 5654 5658 5662 5666 5671 5675 5679 5683 5686 5689 5691 5695
5678 5670 5659 5646 5631 5617 5598 5575 5549 5531 5516 5506 5502 5495 5490 5491 5490 5488 5488 5499 5512 5528 5541 5554 5562 5573 5584 5594 5602 5610 5618 5626 5631 5636 5642 5648 5654 5659 5664 5667 5670 5676 5679 5681 5684 5687 5689
5675 5667 5657 5645 5630 5616 5599 5577 5551 5532 5516 5508 5503 5496 5492 5491 5490 5491 5497 5507 5519 5527 5542 5550 5564 5576 5586 5596 5602 5610 5617 5624 5630 5636 5641 5646 5651 5656 5660 5664 5668 5673 5675 5678 5680 5682 5686
5673 5666 5656 5645 5630 5617 5600 5580 5555 5538 5523 5516 5511 5507 5503 5498 5500 5503 5511 5523 5528 5538 5549 5556 5567 5579 5589 5595 5602 5610 5617 5623 5629 5635 5640 5645 5649 5652 5656 5660 5664 5669 5672 5675 5676 5679 5681
5672 5664 5655 5644 5630 5618 5603 5585 5563 5546 5534 5526 5524 5520 5519 5516 5515 5522 5530 5536 5541 5546 5552 5561 5570 5582 5587 5595 5603 5609 5616 5622 5628 5633 5638 5642 5646 5650 5655 5658 5663 5667 5669 5672 5673 5674 5675
5670 5663 5655 5645 5631 5620 5606 5590 5570 5558 5552 5546 5542 5540 5538 5535 5536 5538 5544 5545 5550 5557 5563 5570 5577 5582 5592 5598 5605 5611 5617 5622 5628 5632 5637 5642 5646 5649 5654 5657 5661 5663 5667 5669 5669 5669 5670
5668 5661 5655 5646 5634 5623 5610 5599 5586 5577 5570 5568 5563 5560 5555 5552 5552 5553 5555 5557 5562 5566 5569 5577 5583 5591 5596 5601 5606 5611 5617 5622 5626 5631 5636 5641 5646 5650 5653 5655 5658 5661 5662 5664 5666 5666 5664
5666 5661 5655 5647 5638 5629 5618 5607 5598 5593 5586 5581 5580 5578 5572 5568 5568 5564 5564 5567 5570 5575 5578 5583 5589 5593 5599 5603 5608 5613 5617 5622 5627 5632 5637 5641 5645 5647 5650 5653 5656 5658 5659 5660 5661 5661 5659
5664 5659 5653 5647 5641 5633 5626 5616 5608 5603 5598 5590 5589 5589 5586 5580 5579 5576 5576 5578 5580 5583 5587 5590 5593 5597 5600 5604 5609 5613 5618 5623 5627 5631 5636 5639 5643 5646 5649 5652 5653 5654 5655 5655 5655 5654 5652
5660 5656 5651 5646 5641 5635 5630 5622 5615 5609 5605 5602 5598 5596 5593 5591 5588 5587 5586 5587 5590 5591 5593 5595 5597 5600 5603 5607 5611 5615 5618 5623 5627 5630 5634 5638 5641 5644 5646 5648 5650 5650 5650 5649 5649 5649 5648
5656 5652 5649 5644 5639 5634 5630 5625 5617 5613 5609 5607 5603 5601 5600 5597 5597 5596 5596 5595 5596 5597 5598 5599 5601 5602 5606 5609 5613 5616 5619 5623 5626 5630 5633 5637 5639 5641 5642 5644 5644 5644 5643 5644 5645 5645 5644
5651 5648 5645 5641 5638 5632 5629 5625 5621 5615 5611 5610 5607 5606 5604 5603 5602 5601 5600 5600 5601 5602 5603 5603 5604 5605 5607 5610 5613 5616 5620 5623 5626 5630 5632 5634 5636 5637 5638 5639 5639 5640 5640 5640 5641 5642 5641
5645 5643 5639 5636 5634 5629 5626 5624 5620 5615 5612 5610 5609 5607 5607 5607 5605 5604 5604 5604 5604 5604 5605 5606 5606 5608 5609 5611 5613 5616 5619 5622 5625 5628 5630 5632 5633 5634 5635 5635 5635 5637 5637 5638 5639 5639 5636
5637 5636 5633 5630 5629 5626 5623 5621 5618 5614 5610 5608 5607 5607 5606 5606 5606 5606 5605 5605 5605 5605 5606 5606 5606 5607 5610 5611 5613 5615 5618 5620 5623 5625 5627 5628 5630 5631 5631 5631 5633 5633 5634 5636 5636 5635 5634
5629 5629 5627 5624 5623 5621 5618 5617 5614 5611 5607 5604 5604 5604 5603 5603 5603 5603 5603 5603 5604 5604 5605 5605 5606 5606 5607 5610 5613 5614 5617 5619 5621 5623 5624 5625 5626 5627 5627 5629 5631 5631 5632 5633 5634 5634 5632
5620 5620 5620 5618 5616 5615 5613 5611 5610 5608 5604 5601 5599 5599 5599 5600 5600 5600 5601 5602 5602 5602 5602 5602 5603 5603 5604 5606 5609 5612 5614 5616 5619 5620 5621 5622 5622 5624 5625 5626 5628 5630 5631 5632 5632 5632 5630
5611 5611 5611 5611 5609 5608 5606 5605 5602 5601 5600 5598 5595 5593 5593 5594 5595 5595 5596 5598 5599 5598 5599 5599 5600 5600 5601 5603 5605 5607 5610 5612 5614 5616 5618 5618 5620 5622 5622 5624 5627 5628 5629 5630 5631 5633 5627
5601 5602 5603 5602 5601 5601 5598 5597 5595 5593 5591 5589 5588 5587 5586 5585 5586 5587 5589 5591 5593 5594 5594 5595 5596 5597 5597 5599 5601 5603 5606 5608 5610 5613 5614 5616 5617 5618 5620 5622 5625 5625 5627 5628 5628 5626 5625
5592 5592 5594 5594 5593 5593 5591 5589 5587 5584 5581 5579 5576 5574 5573 5573 5574 5576 5578 5581 5584 5588 5589 5589 5591 5591 5593 5595 5597 5599 5601 5604 5606 5609 5611 5613 5614 5616 5618 5620 5621 5623 5624 5624 5624 5623 5623